KX4BE Weather Reports


time (UTC)temp
C
wind
direction
speed
KPH
gust
KPH
rain 1hr
cm
rain 24hr
cm
rain mn
cm
humidity
%
barometer
mb
20260506112841 18 171 0.0 3.2 0.03 0.03 0.03 91 1014.3
20260506112340 18 171 0.0 3.2 0.03 0.03 0.03 91 1014.3
20260506111837 18 171 0.0 4.8 0.03 0.03 0.03 91 1014.0
20260506111336 18 171 1.6 6.4 0.03 0.03 0.03 90 1013.8
20260506110834 18 118 3.2 4.8 0.03 0.03 0.03 90 1014.1
20260506105831 18 253 1.6 3.2 0.00 0.00 0.00 89 1014.1
20260506105351 18 294 1.6 3.2 0.00 0.00 0.00 89 1013.8
20260506104846 18 294 0.0 4.8 0.00 0.00 0.00 88 1013.6
20260506104347 18 294 1.6 4.8 0.00 0.00 0.00 88 1013.7
20260506103846 18 151 1.6 3.2 0.00 0.00 0.00 87 1013.6
20260506103346 18 152 0.0 4.8 0.00 0.00 0.00 87 1013.6
20260506102842 19 151 0.0 8.0 0.00 0.00 0.00 86 1013.4
20260506102402 19 153 1.6 4.8 0.00 0.00 0.00 85 1013.1
20260506101859 19 172 0.0 3.2 0.00 0.00 0.00 84 1013.1
20260506101338 19 172 0.0 12.9 0.00 0.00 0.00 84 1013.1
20260506100836 19 173 1.6 12.9 0.00 0.00 0.00 83 1013.2
20260506100337 20 245 4.8 14.5 0.00 0.00 0.00 82 1013.2
20260506095830 20 140 4.8 14.5 0.00 0.00 0.00 82 1013.3
20260506095410 20 184 1.6 4.8 0.00 0.00 0.00 81 1013.2
20260506094847 20 21 1.6 12.9 0.00 0.00 0.00 80 1013.2
20260506094406 20 255 3.2 12.9 0.00 0.00 0.00 80 1012.8
20260506093843 20 135 4.8 14.5 0.00 0.00 0.00 79 1012.8
20260506093344 20 44 4.8 14.5 0.00 0.00 0.00 79 1013.0
20260506092840 20 151 1.6 14.5 0.00 0.00 0.00 79 1013.2
20260506092340 20 229 3.2 9.7 0.00 0.00 0.00 78 1013.2
20260506091839 20 169 3.2 16.1 0.00 0.00 0.00 78 1013.2
20260506091339 20 188 3.2 16.1 0.00 0.00 0.00 78 1013.0
20260506090837 20 173 4.8 16.1 0.00 0.00 0.00 78 1013.0
20260506090338 20 142 4.8 8.0 0.00 0.00 0.00 78 1013.1
20260506085832 20 136 3.2 6.4 0.00 0.00 0.00 77 1013.1
20260506085330 20 175 0.0 6.4 0.00 0.00 0.00 77 1013.3
20260506084849 20 175 3.2 6.4 0.00 0.00 0.00 77 1013.2
20260506084348 20 190 0.0 8.0 0.00 0.00 0.00 77 1013.1
20260506083847 20 204 4.8 8.0 0.00 0.00 0.00 77 1013.0
20260506083348 20 182 1.6 4.8 0.00 0.00 0.00 77 1013.0
20260506082842 20 182 1.6 4.8 0.00 0.00 0.00 76 1012.7
20260506082342 20 182 0.0 6.4 0.00 0.00 0.00 76 1012.7
20260506081843 20 182 1.6 6.4 0.00 0.00 0.00 76 1012.8
20260506081343 20 247 1.6 6.4 0.00 0.00 0.00 76 1012.7
20260506080841 20 119 3.2 6.4 0.00 0.00 0.00 76 1012.8
20260506080403 20 187 1.6 4.8 0.00 0.00 0.00 75 1012.7
20260506073351 20 174 1.6 3.2 0.00 0.00 0.00 73 1012.6
20260506072846 20 174 0.0 3.2 0.00 0.00 0.00 73 1012.4
20260506072345 20 175 0.0 4.8 0.00 0.00 0.00 73 1012.6
20260506071902 20 174 0.0 3.2 0.00 0.00 0.00 72 1012.6
20260506071333 20 174 1.6 3.2 0.00 0.00 0.00 72 1012.6
20260506070849 20 174 1.6 3.2 0.00 0.00 0.00 72 1012.5
20260506070349 20 175 0.0 4.8 0.00 0.00 0.00 72 1012.7
20260506062332 20 175 1.6 4.8 0.00 0.00 0.00 71 1013.0
20260506061831 20 134 3.2 4.8 0.00 0.00 0.00 70 1013.1
20260506061351 20 206 1.6 6.4 0.00 0.00 0.00 70 1013.4
20260506060846 20 206 3.2 6.4 0.00 0.00 0.00 70 1013.6
20260506060347 20 192 3.2 6.4 0.00 0.00 0.00 69 1013.6
20260506051330 20 144 1.6 8.0 0.00 0.00 0.00 68 1013.8
20260506050848 20 197 3.2 8.0 0.00 0.00 0.00 67 1013.9
20260506050349 20 199 3.2 6.4 0.00 0.00 0.00 67 1013.9
20260506044836 21 207 3.2 8.0 0.00 0.00 0.00 66 1014.1
20260506044336 21 217 1.6 6.4 0.00 0.00 0.00 66 1014.1
20260506043833 21 142 3.2 9.7 0.00 0.00 0.00 66 1013.9
20260506043333 21 213 4.8 9.7 0.00 0.00 0.00 66 1013.9
20260506042845 21 184 3.2 4.8 0.00 0.00 0.00 65 1014.0
20260506042345 21 158 0.0 6.4 0.00 0.00 0.00 65 1014.0
20260506041842 21 159 0.0 8.0 0.00 0.00 0.00 65 1014.0
20260506041342 21 161 3.2 6.4 0.00 0.00 0.00 64 1013.9
20260506040841 21 168 1.6 9.7 0.00 0.00 0.00 64 1014.0
20260506040342 21 159 3.2 9.7 0.00 0.00 0.00 64 1014.0
20260506035836 21 180 1.6 14.5 0.00 0.00 0.00 64 1013.8
20260506035338 21 180 1.6 14.5 0.00 0.00 0.00 64 1013.8
20260506034835 21 150 4.8 14.5 0.00 0.00 0.00 63 1014.0
20260506034335 21 157 4.8 12.9 0.00 0.00 0.00 63 1014.1
20260506033830 21 217 4.8 16.1 0.00 0.00 0.00 63 1014.2
20260506033351 21 179 3.2 16.1 0.00 0.00 0.00 63 1014.2
20260506032847 21 223 3.2 11.3 0.00 0.00 0.00 63 1014.5
20260506032346 21 203 4.8 12.9 0.00 0.00 0.00 63 1014.3
20260506031842 21 187 4.8 12.9 0.00 0.00 0.00 63 1014.3
20260506031341 21 182 1.6 8.0 0.00 0.00 0.00 64 1014.3
20260506030838 21 236 1.6 8.0 0.00 0.00 0.00 64 1014.2
20260506030400 21 205 1.6 6.4 0.00 0.00 0.00 63 1014.2
20260506025834 21 206 3.2 6.4 0.00 0.00 0.00 63 1014.1
20260506025334 21 178 0.0 8.0 0.00 0.00 0.00 63 1014.3
20260506024831 21 172 0.0 12.9 0.00 0.00 0.00 63 1014.1
20260506024351 21 142 1.6 12.9 0.00 0.00 0.00 62 1014.4
20260506023910 21 185 3.2 14.5 0.00 0.00 0.00 63 1014.4
20260506023350 21 236 3.2 14.5 0.00 0.00 0.00 63 1014.6
20260506022845 21 217 4.8 12.9 0.00 0.00 0.00 63 1014.4
20260506022349 21 186 6.4 17.7 0.00 0.00 0.00 64 1014.3
20260506021848 21 181 4.8 12.9 0.00 0.00 0.00 63 1014.2
20260506021403 21 218 3.2 12.9 0.00 0.00 0.00 64 1014.1
20260506020841 21 234 4.8 12.9 0.00 0.00 0.00 63 1014.0
20260506020341 21 141 3.2 8.0 0.00 0.00 0.00 64 1014.0
20260506015837 21 248 3.2 8.0 0.00 0.00 0.00 64 1014.0
20260506015337 21 221 1.6 9.7 0.00 0.00 0.00 63 1013.9
20260506014831 21 209 1.6 8.0 0.00 0.00 0.00 64 1013.9
20260506014331 21 229 0.0 3.2 0.00 0.00 0.00 62 1013.7
20260506013849 21 225 0.0 6.4 0.00 0.00 0.00 62 1013.7
20260506013350 21 225 1.6 6.4 0.00 0.00 0.00 62 1013.5
20260506012904 21 218 0.0 1.6 0.00 0.00 0.00 61 1013.4
20260506012345 21 218 0.0 3.2 0.00 0.00 0.00 61 1013.4
20260506011841 21 218 1.6 6.4 0.00 0.00 0.00 61 1013.4
20260506011341 21 217 1.6 6.4 0.00 0.00 0.00 61 1013.4
20260506010837 21 228 1.6 4.8 0.00 0.00 0.00 60 1013.3
20260506010357 21 229 1.6 8.0 0.00 0.00 0.00 59 1013.2
20260506005835 21 210 4.8 8.0 0.00 0.00 0.00 59 1013.2
20260506005335 21 215 3.2 11.3 0.00 0.00 0.00 58 1013.1
20260506004831 21 219 4.8 14.5 0.00 0.00 0.00 58 1013.1
20260506004411 21 217 1.6 14.5 0.00 0.00 0.00 59 1013.1
20260506003846 21 198 3.2 11.3 0.00 0.00 0.00 58 1013.1
20260506003345 21 155 4.8 11.3 0.00 0.00 0.00 58 1013.1
20260506002837 21 224 4.8 11.3 0.00 0.00 0.00 58 1013.2
20260506002337 21 96 3.2 11.3 0.00 0.00 0.00 58 1013.2
20260506001855 21 270 3.2 11.3 0.00 0.00 0.00 58 1013.3
20260506001333 21 155 3.2 11.3 0.00 0.00 0.00 57 1013.4
20260506000832 21 182 1.6 11.3 0.00 0.00 0.00 57 1013.4
20260506000354 21 202 1.6 12.9 0.00 0.00 0.00 58 1013.4
20260505235842 21 191 4.8 12.9 0.00 0.00 0.00 58 1013.5
20260505235342 21 171 6.4 12.9 0.00 0.00 0.00 59 1013.7
20260505234900 21 250 3.2 12.9 0.00 0.00 0.00 59 1013.5
20260505234339 21 200 3.2 12.9 0.00 0.00 0.00 60 1013.5
20260505233837 21 205 3.2 6.4 0.00 0.00 0.00 61 1013.6
20260505233337 21 172 3.2 12.9 0.00 0.00 0.00 61 1013.4
20260505232834 21 163 1.6 12.9 0.00 0.00 0.00 61 1013.5
20260505232334 21 231 4.8 14.5 0.00 0.00 0.00 63 1013.5
20260505231833 21 221 4.8 14.5 0.00 0.00 0.00 64 1013.6
20260505231334 21 248 3.2 11.3 0.00 0.00 0.00 68 1013.8
20260505230831 21 159 1.6 6.4 0.00 0.00 0.00 67 1013.6
20260505230351 21 206 1.6 8.0 0.00 0.00 0.00 66 1013.6
20260505225845 21 184 3.2 8.0 0.00 0.00 0.00 63 1013.5
20260505225342 21 215 3.2 11.3 0.00 0.00 0.00 61 1013.6
20260505224840 21 215 1.6 11.3 0.00 0.00 0.00 62 1013.3
20260505224400 21 200 1.6 11.3 0.00 0.00 0.00 62 1013.3
20260505223837 21 196 3.2 6.4 0.00 0.00 0.00 62 1013.3
20260505223338 21 213 1.6 4.8 0.00 0.00 0.00 63 1013.8
20260505222853 21 188 1.6 4.8 0.00 0.00 0.00 60 1013.6
20260505222332 21 215 1.6 9.7 0.00 0.00 0.00 58 1013.7
20260505221909 21 216 1.6 9.7 0.00 0.00 0.00 58 1013.6
20260505221348 21 248 3.2 11.3 0.00 0.00 0.00 59 1013.5
20260505220845 21 271 3.2 20.9 0.00 0.00 0.00 57 1013.5
20260505220435 21 234 9.7 20.9 0.00 0.00 0.00 58 1013.7
20260505215852 21 202 4.8 8.0 0.00 0.00 0.00 61 1013.8
20260505215331 21 153 3.2 12.9 0.00 0.00 0.00 59 1013.7
20260505214848 21 200 6.4 14.5 0.00 0.00 0.00 66 1013.5
20260505214344 21 249 4.8 14.5 0.00 0.00 0.00 63 1013.8
20260505213847 21 217 4.8 6.4 0.00 0.00 0.00 65 1013.5
20260505213347 22 149 3.2 11.3 0.00 0.00 0.00 64 1013.4
20260505212839 22 153 1.6 11.3 0.00 0.00 0.00 65 1013.5
20260505212340 22 227 3.2 14.5 0.00 0.00 0.00 64 1013.8
20260505211837 22 221 6.4 14.5 0.00 0.00 0.00 61 1013.9
20260505211337 22 186 6.4 19.3 0.00 0.00 0.00 55 1014.0
20260505210832 23 156 8.0 19.3 0.00 0.00 0.00 55 1014.0
20260505210333 23 195 3.2 12.9 0.00 0.00 0.00 55 1014.5
20260505205846 23 202 4.8 17.7 0.00 0.00 0.00 51 1014.3
20260505205346 23 152 8.0 17.7 0.00 0.00 0.00 51 1014.3
20260505204905 23 138 4.8 16.1 0.00 0.00 0.00 51 1014.2
20260505204343 24 242 3.2 16.1 0.00 0.00 0.00 48 1014.3
20260505203839 24 219 4.8 12.9 0.00 0.00 0.00 49 1014.1
20260505203340 24 233 4.8 11.3 0.00 0.00 0.00 48 1014.3
20260505202835 24 176 4.8 11.3 0.00 0.00 0.00 52 1014.3
20260505202355 25 192 1.6 16.1 0.00 0.00 0.00 50 1014.5
20260505201831 25 294 3.2 16.1 0.00 0.00 0.00 48 1014.6
20260505201335 25 235 4.8 17.7 0.00 0.00 0.00 47 1014.6
20260505200832 25 263 4.8 22.5 0.00 0.00 0.00 47 1014.6
20260505200351 25 141 9.7 22.5 0.00 0.00 0.00 45 1014.6
20260505195842 25 168 8.0 24.1 0.00 0.00 0.00 43 1014.7
20260505195341 25 281 6.4 32.2 0.00 0.00 0.00 43 1014.7
20260505194839 26 130 4.8 25.7 0.00 0.00 0.00 43 1014.7
20260505194338 26 221 6.4 25.7 0.00 0.00 0.00 44 1014.7
20260505193836 26 182 11.3 0.0 0.00 0.00 0.00 41 1014.4
20260505193336 26 198 12.9 37.0 0.00 0.00 0.00 41 1014.8
20260505192847 26 181 9.7 30.6 0.00 0.00 0.00 41 1015.1
20260505192348 26 165 9.7 30.6 0.00 0.00 0.00 42 1015.0
20260505191847 26 202 8.0 25.7 0.00 0.00 0.00 41 1015.3
20260505191346 26 268 9.7 30.6 0.00 0.00 0.00 41 1015.4
20260505190842 26 196 9.7 30.6 0.00 0.00 0.00 40 1015.3
20260505190343 26 249 6.4 25.7 0.00 0.00 0.00 42 1015.1
20260505185835 26 271 6.4 27.4 0.00 0.00 0.00 44 1015.1
20260505185335 26 24 9.7 24.1 0.00 0.00 0.00 43 1015.3
20260505184838 26 186 6.4 30.6 0.00 0.00 0.00 45 1015.5
20260505184337 26 198 16.1 30.6 0.00 0.00 0.00 42 1015.3
20260505183833 26 147 11.3 19.3 0.00 0.00 0.00 44 1015.4
20260505183353 26 246 6.4 17.7 0.00 0.00 0.00 46 1015.5
20260505182846 26 286 4.8 32.2 0.00 0.00 0.00 46 1015.4
20260505182403 26 70 4.8 32.2 0.00 0.00 0.00 48 1015.6
20260505181839 26 163 8.0 25.7 0.00 0.00 0.00 47 1015.8
20260505181339 26 188 12.9 22.5 0.00 0.00 0.00 46 1015.9
20260505180857 26 196 9.7 19.3 0.00 0.00 0.00 47 1015.9
20260505180337 26 191 11.3 16.1 0.00 0.00 0.00 47 1016.0
20260505175852 25 206 4.8 29.0 0.00 0.00 0.00 48 1015.9
20260505175352 26 185 6.4 17.7 0.00 0.00 0.00 48 1015.8
20260505174848 26 178 4.8 24.1 0.00 0.00 0.00 49 1015.9
20260505174348 25 132 8.0 24.1 0.00 0.00 0.00 48 1016.0
20260505173845 25 207 3.2 19.3 0.00 0.00 0.00 49 1016.0
20260505173346 25 232 9.7 19.3 0.00 0.00 0.00 49 1016.2
20260505172841 25 158 6.4 14.5 0.00 0.00 0.00 51 1016.1
20260505172341 25 163 6.4 17.7 0.00 0.00 0.00 52 1016.2
20260505171842 24 231 6.4 17.7 0.00 0.00 0.00 54 1016.2
20260505171343 24 201 6.4 16.1 0.00 0.00 0.00 53 1016.4
20260505170900 24 178 3.2 19.3 0.00 0.00 0.00 54 1016.8
20260505170340 24 203 8.0 17.7 0.00 0.00 0.00 52 1016.8
20260505165853 25 159 8.0 12.9 0.00 0.00 0.00 52 1017.0
20260505165351 25 76 3.2 19.3 0.00 0.00 0.00 52 1016.9
20260505164846 25 163 4.8 14.5 0.00 0.00 0.00 53 1017.0
20260505164342 25 22 4.8 14.5 0.00 0.00 0.00 54 1017.0
20260505163901 25 200 6.4 14.5 0.00 0.00 0.00 54 1017.0
20260505163340 24 254 6.4 12.9 0.00 0.00 0.00 56 1017.1
20260505162834 23 142 4.8 11.3 0.00 0.00 0.00 57 1017.2
20260505162335 23 46 1.6 12.9 0.00 0.00 0.00 59 1017.3
20260505161834 23 201 1.6 12.9 0.00 0.00 0.00 61 1017.3
20260505161333 23 167 3.2 9.7 0.00 0.00 0.00 59 1017.2
20260505160910 23 238 1.6 9.7 0.00 0.00 0.00 59 1017.2
20260505160351 23 210 4.8 9.7 0.00 0.00 0.00 59 1017.2
20260505153344 22 190 6.4 12.9 0.00 0.00 0.00 61 1017.5
20260505152837 21 219 3.2 16.1 0.00 0.00 0.00 64 1017.5
20260505152336 21 253 3.2 16.1 0.00 0.00 0.00 62 1017.6
20260505151833 21 140 1.6 14.5 0.00 0.00 0.00 62 1017.5
20260505151332 21 223 8.0 14.5 0.00 0.00 0.00 61 1017.5
20260505150850 21 182 3.2 17.7 0.00 0.00 0.00 63 1017.5
20260505150408 21 166 6.4 17.7 0.00 0.00 0.00 62 1017.5
20260505140343 19 224 4.8 16.1 0.00 0.00 0.00 67 1017.2
20260505124833 16 142 1.6 4.8 0.00 0.00 0.00 74 1017.3
20260505124333 16 328 0.0 1.6 0.00 0.00 0.00 76 1017.3
20260505123830 16 328 1.6 1.6 0.00 0.00 0.00 77 1017.0
20260505123350 15 328 0.0 1.6 0.00 0.00 0.00 76 1017.0
20260505122846 15 328 1.6 1.6 0.00 0.00 0.00 77 1016.9
20260505122346 15 328 0.0 1.6 0.00 0.00 0.00 77 1016.9
20260505121842 15 328 0.0 3.2 0.00 0.00 0.00 78 1016.8
20260505121343 15 328 1.6 3.2 0.00 0.00 0.00 78 1016.7
20260505120840 15 328 0.0 3.2 0.00 0.00 0.00 78 1016.8
20260505120342 15 328 0.0 3.2 0.00 0.00 0.00 80 1016.8
20260505115836 14 328 0.0 0.0 0.00 0.00 0.00 80 1016.7
20260505115336 14 328 0.0 0.0 0.00 0.00 0.00 81 1016.6
20260505114834 13 328 0.0 0.0 0.00 0.00 0.00 80 1016.5
20260505114352 13 328 0.0 0.0 0.00 0.00 0.00 81 1016.4
20260505113832 13 328 0.0 0.0 0.00 0.00 0.00 81 1016.4
20260505113354 13 328 0.0 0.0 0.00 0.00 0.00 81 1016.4